Location: Tyler Bend Campground
(35.9875°N, 92.7606°W)
Time: 20:03:09
(UTC-05:00)

CZ-2C R/B - Visible Passes

Search period start: 27 August 2014 00:00
Search period end: 06 September 2014 00:00
Orbit: 670 x 786 km, 98.1° (Epoch: 25 August)

Date Brightness Start Highest point End Pass type
(mag) Time Alt. Az. Time Alt. Az. Time Alt. Az.
27 Aug 5.0 21:24:18 10° SW 21:27:36 19° W 21:30:59 10° NW visible
28 Aug 3.0 20:35:09 10° S 20:39:49 60° W 20:44:41 10° NNW visible
29 Aug 5.0 21:27:44 10° SW 21:30:52 17° W 21:34:04 10° NW visible
30 Aug 3.1 20:38:23 10° S 20:43:03 55° W 20:47:55 10° NNW visible
31 Aug 5.1 21:31:11 10° SW 21:34:07 16° W 21:37:08 10° NW visible
01 Sep 3.3 20:41:38 10° S 20:46:17 51° W 20:51:08 10° NNW visible
02 Sep 2.7 19:54:09 10° SSE 19:58:49 51° ENE 20:03:39 10° N visible
02 Sep 5.2 21:34:40 10° SW 21:37:23 15° W 21:40:09 10° WNW visible
03 Sep 3.5 20:44:53 10° S 20:49:32 47° W 20:54:21 10° NNW visible
04 Sep 2.6 19:57:18 10° SSE 20:02:02 55° ENE 20:06:57 10° N visible
04 Sep 5.2 21:38:11 10° WSW 21:40:39 14° W 21:43:09 10° WNW visible
05 Sep 3.6 20:48:09 10° S 20:52:46 43° W 20:57:34 10° NNW visible
